FW1873 Weather Reports


time (UTC)temp
C
wind
direction
speed
KPH
gust
KPH
rain 1hr
cm
rain 24hr
cm
rain mn
cm
humidity
%
barometer
mb
20260902231612 32 224 1.6 4.8 0.00 0.00 0.00 60 1040.1
20260902230532 32 221 1.6 6.4 0.00 0.00 0.00 59 1040.1
20260902224549 33 214 3.2 11.3 0.00 0.00 0.00 57 1040.1
20260902223526 33 236 1.6 8.0 0.00 0.00 0.00 56 1040.1
20260902222526 34 209 6.4 11.3 0.00 0.00 0.00 53 1040.2
20260902221605 35 242 3.2 8.0 0.00 0.00 0.00 54 1040.4
20260902220553 36 242 3.2 8.0 0.00 0.00 0.00 51 1040.4
20260902215554 36 268 4.8 11.3 0.00 0.00 0.00 46 1040.4
20260902214525 36 230 4.8 11.3 0.00 0.00 0.00 44 1040.4
20260902213543 36 225 4.8 11.3 0.00 0.00 0.00 46 1040.4
20260902212549 37 226 4.8 11.3 0.00 0.00 0.00 50 1040.4
20260902211628 38 216 4.8 11.3 0.00 0.00 0.00 44 1040.4
20260902210547 37 235 3.2 8.0 0.00 0.00 0.00 49 1040.4
20260902205547 38 276 3.2 11.3 0.00 0.00 0.00 51 1040.7
20260902204600 37 239 4.8 12.9 0.00 0.00 0.00 57 1040.7
20260902203544 37 264 3.2 6.4 0.00 0.00 0.00 58 1040.7
20260902202603 37 21 1.6 6.4 0.00 0.00 0.00 57 1040.7
20260902201543 38 257 3.2 8.0 0.00 0.00 0.00 58 1040.7
20260902200602 38 232 4.8 11.3 0.00 0.00 0.00 56 1040.8
20260902195603 37 238 4.8 11.3 0.00 0.00 0.00 57 1041.1
20260902194622 38 280 1.6 6.4 0.00 0.00 0.00 57 1041.1
20260902193538 38 255 4.8 12.9 0.00 0.00 0.00 57 1041.1
20260902192537 38 231 4.8 12.9 0.00 0.00 0.00 57 1041.3
20260902191557 38 183 3.2 6.4 0.00 0.00 0.00 61 1041.5
20260902190639 37 240 3.2 6.4 0.00 0.00 0.00 59 1041.6
20260902185556 38 234 4.8 17.7 0.00 0.00 0.00 57 1041.6
20260902183533 37 9 1.6 6.4 0.00 0.00 0.00 61 1041.9
20260902182532 37 250 3.2 6.4 0.00 0.00 0.00 62 1041.9
20260902181613 37 34 1.6 4.8 0.00 0.00 0.00 63 1041.9
20260902180530 36 13 1.6 4.8 0.00 0.00 0.00 64 1042.0
20260902175551 36 255 1.6 11.3 0.00 0.00 0.00 66 1042.2
20260902174527 36 275 3.2 8.0 0.00 0.00 0.00 66 1042.2
20260902173607 36 233 3.2 8.0 0.00 0.00 0.00 64 1042.5
20260902172527 36 182 3.2 8.0 0.00 0.00 0.00 66 1042.5
20260902171525 36 279 3.2 11.3 0.00 0.00 0.00 65 1042.5
20260902170526 36 288 3.2 11.3 0.00 0.00 0.00 64 1042.5
20260902165524 36 222 4.8 8.0 0.00 0.00 0.00 66 1042.6
20260902164553 36 301 1.6 8.0 0.00 0.00 0.00 66 1042.6
20260902163551 36 231 3.2 11.3 0.00 0.00 0.00 66 1042.8
20260902162621 35 221 4.8 11.3 0.00 0.00 0.00 66 1042.6
20260902161539 35 280 3.2 8.0 0.00 0.00 0.00 69 1042.8
20260902160550 35 237 1.6 4.8 0.00 0.00 0.00 70 1042.9
20260902155609 34 281 3.2 8.0 0.00 0.00 0.00 70 1042.9
20260902154606 33 278 1.6 6.4 0.00 0.00 0.00 71 1042.9
20260902153647 33 251 1.6 6.4 0.00 0.00 0.00 71 1043.2
20260902152544 32 248 3.2 8.0 0.00 0.00 0.00 71 1043.2
20260902151543 32 267 1.6 8.0 0.00 0.00 0.00 72 1043.2
20260902150706 31 258 4.8 8.0 0.00 0.00 0.00 72 1043.2
20260902145601 31 242 4.8 8.0 0.00 0.00 0.00 73 1043.2
20260902144600 31 243 3.2 8.0 0.00 0.00 0.00 73 1043.2
20260902143600 30 218 3.2 8.0 0.00 0.00 0.00 75 1043.2
20260902142539 28 277 1.6 6.4 0.00 0.00 0.00 75 1043.1
20260902141537 28 285 1.6 4.8 0.00 0.00 0.00 75 1043.2
20260902140536 27 211 4.8 8.0 0.00 0.00 0.00 76 1043.0
20260902135535 26 238 3.2 6.4 0.00 0.00 0.00 78 1043.1
20260902134534 25 249 1.6 6.4 0.00 0.00 0.00 78 1043.2
20260902133533 25 249 1.6 6.4 0.00 0.00 0.00 78 1043.0
20260902132532 24 225 1.6 4.8 0.00 0.00 0.00 71 1042.9
20260902131656 24 238 0.0 4.8 0.00 0.00 0.00 80 1043.0
20260902130613 23 238 1.6 4.8 0.00 0.00 0.00 80 1042.9
20260902125529 22 35 1.6 4.8 0.00 0.00 0.00 81 1042.9
20260902124631 22 154 1.6 4.8 0.00 0.00 0.00 81 1042.9
20260902123611 22 315 0.0 1.6 0.00 0.00 0.00 81 1042.9
20260902122640 21 0.0 0.0 0.00 0.00 0.00 81 1042.9
20260902121526 21 0.0 0.0 0.00 0.00 0.00 82 1042.9
20260902120526 21 0.0 0.0 0.00 0.00 0.00 82 1042.9
20260902115524 20 0.0 0.0 0.00 0.00 0.00 82 1042.9
20260902114554 20 0.0 0.0 0.00 0.00 0.00 82 1042.6
20260902113623 20 0.0 0.0 0.00 0.00 0.00 82 1042.5
20260902112551 20 0.0 0.0 0.00 0.00 0.00 82 1042.5
20260902111622 20 0.0 0.0 0.00 0.00 0.00 82 1042.2
20260902110620 20 0.0 0.0 0.00 0.00 0.00 82 1042.2
20260902105621 20 0.0 0.0 0.00 0.00 0.00 82 1042.3
20260902104629 20 0.0 0.0 0.00 0.00 0.00 82 1042.2
20260902103628 20 0.0 0.0 0.00 0.00 0.00 82 1042.5
20260902102546 20 0.0 0.0 0.00 0.00 0.00 82 1042.2
20260902101545 20 0.0 0.0 0.00 0.00 0.00 72 1042.2
20260902100614 20 0.0 0.0 0.00 0.00 0.00 81 1042.2
20260902095625 20 0.0 0.0 0.00 0.00 0.00 81 1042.2
20260902094542 20 0.0 0.0 0.00 0.00 0.00 81 1042.2
20260902093611 20 0.0 0.0 0.00 0.00 0.00 81 1042.2
20260902092703 21 0.0 0.0 0.00 0.00 0.00 81 1042.2
20260902091631 21 0.0 0.0 0.00 0.00 0.00 81 1042.2
20260902090559 21 0.0 0.0 0.00 0.00 0.00 81 1042.2
20260902085538 21 0.0 0.0 0.00 0.00 0.00 81 1041.9
20260902084608 21 0.0 0.0 0.00 0.00 0.00 81 1041.9
20260902083536 21 0.0 0.0 0.00 0.00 0.00 81 1041.6
20260902082638 21 0.0 0.0 0.00 0.00 0.00 81 1041.5
20260902081635 21 0.0 0.0 0.00 0.00 0.00 81 1041.5
20260902080604 21 0.0 0.0 0.00 0.00 0.00 81 1041.5
20260902075655 21 0.0 0.0 0.00 0.00 0.00 81 1041.5
20260902074733 21 0.0 0.0 0.00 0.00 0.00 80 1041.5
20260902073551 21 0.0 0.0 0.00 0.00 0.00 80 1041.5
20260902072651 21 315 0.0 1.6 0.00 0.00 0.00 80 1041.5
20260902071609 21 0.0 0.0 0.00 0.00 0.00 80 1041.5
20260902070628 21 0.0 0.0 0.00 0.00 0.00 79 1041.5
20260902065630 21 0.0 0.0 0.00 0.00 0.00 80 1041.5
20260902064619 21 0.0 0.0 0.00 0.00 0.00 80 1041.5
20260902063526 21 0.0 0.0 0.00 0.00 0.00 79 1041.5
20260902062706 21 0.0 0.0 0.00 0.00 0.00 79 1041.5
20260902061624 21 0.0 0.0 0.00 0.00 0.00 79 1041.5
20260902060613 21 0.0 0.0 0.00 0.00 0.00 78 1041.5
20260902055623 21 0.0 0.0 0.00 0.00 0.00 78 1041.5
20260902054654 21 0.0 0.0 0.00 0.00 0.00 78 1041.5
20260902052550 21 0.0 0.0 0.00 0.00 0.00 78 1041.5
20260902051639 21 0.0 0.0 0.00 0.00 0.00 78 1041.5
20260902050659 22 0.0 0.0 0.00 0.00 0.00 78 1041.5
20260902045547 22 0.0 0.0 0.00 0.00 0.00 78 1041.5
20260902044616 22 0.0 0.0 0.00 0.00 0.00 77 1041.5
20260902043615 22 0.0 0.0 0.00 0.00 0.00 77 1041.5
20260902042614 22 0.0 0.0 0.00 0.00 0.00 77 1041.5
20260902041633 22 0.0 0.0 0.00 0.00 0.00 77 1041.5
20260902040544 22 0.0 0.0 0.00 0.00 0.00 76 1041.8
20260902035653 22 0.0 0.0 0.00 0.00 0.00 76 1041.6
20260902034631 22 0.0 0.0 0.00 0.00 0.00 76 1041.5
20260902033633 23 0.0 0.0 0.00 0.00 0.00 76 1041.5
20260902032630 23 0.0 0.0 0.00 0.00 0.00 76 1041.5
20260902031719 23 0.0 0.0 0.00 0.00 0.00 75 1041.5
20260902030650 23 0.0 0.0 0.00 0.00 0.00 75 1041.5
20260902025739 24 0.0 0.0 0.00 0.00 0.00 74 1041.5
20260902024536 24 0.0 0.0 0.00 0.00 0.00 65 1041.5
20260902023555 24 0.0 0.0 0.00 0.00 0.00 74 1041.5
20260902022615 24 0.0 0.0 0.00 0.00 0.00 73 1041.5
20260902021603 25 0.0 0.0 0.00 0.00 0.00 73 1041.5
20260902020532 25 315 0.0 1.6 0.00 0.00 0.00 73 1041.4
20260902015615 25 0.0 0.0 0.00 0.00 0.00 73 1041.1
20260902014630 26 0.0 0.0 0.00 0.00 0.00 72 1041.2
20260902013651 26 0.0 0.0 0.00 0.00 0.00 72 1041.5
20260902012652 26 0.0 0.0 0.00 0.00 0.00 72 1041.2
20260902011549 26 0.0 0.0 0.00 0.00 0.00 70 1041.1
20260902010630 27 0.0 0.0 0.00 0.00 0.00 71 1041.1
20260902005626 27 0.0 0.0 0.00 0.00 0.00 69 1041.1
20260902004636 27 0.0 0.0 0.00 0.00 0.00 69 1041.0
20260902003727 28 0.0 0.0 0.00 0.00 0.00 68 1040.8
20260902002523 28 0.0 0.0 0.00 0.00 0.00 67 1040.8
20260902001523 29 0.0 0.0 0.00 0.00 0.00 67 1041.1
20260902000542 30 0.0 0.0 0.00 0.00 0.00 66 1041.1
20260901235541 30 0.0 0.0 0.00 0.00 0.00 65 1041.1
20260901234709 31 0.0 0.0 0.00 0.00 0.00 64 1041.1
20260901233553 31 263 0.0 4.8 0.00 0.00 0.00 61 1041.1
20260901232658 32 205 0.0 4.8 0.00 0.00 0.00 62 1041.1